Regional Weather Roundup
Issued by NWS

Home | Current Version | Previous Version | Text Only | Print | Product List | Glossary Off
Versions: 1 2 3 4 5 6 7 8 9 10 11 12 13 14 15 16 17 18 19 20 21 22 23 24 25 26 27 28 29 30 31 32 33 34 35 36 37 38 39 40 41 42 43 44 45 46 47 48 49 50

000
ASUS43 KDTX 180401
RWRMI
MICHIGAN HOURLY REGIONAL WEATHER ROUNDUP
NATIONAL WEATHER SERVICE DETROIT/PONTIAC MI
1100 PM EST WED JAN 17 2018

NOTE: "FAIR" INDICATES FEW OR NO CLOUDS BELOW 12,000 FEET WITH NO
SIGNIFICANT WEATHER AND/OR OBSTRUCTION TO VISIBILITY.

MIZ047>049-052>055-059>063-066>070-074>076-081>083-180500-
SOUTHEAST LOWER MICHIGAN

CITY           SKY/WX    TMP DP  RH WIND       PRES   REMARKS
ADRIAN         FAIR      14   7  73 W13G24    30.22F WCI   0
ALMA           FAIR      24  15  70 SW13G23   30.06F WCI  12
ANN ARBOR      FAIR      17   8  67 S12       30.17F WCI   4
BAD AXE        FAIR      22  14  72 SW18G30   30.00F WCI   7
CARO           FAIR      21  14  73 SW18G28   30.03F WCI   6
DETROIT CITY   FAIR      18   9  68 SW15G24   30.16F WCI   4
DETROIT        MOCLDY    17   9  70 SW18      30.19F WCI   1
FLINT          FAIR      19   9  65 SW18G28   30.10F WCI   4
GROSSE ILE     FAIR      17   9  70 SW12G21   30.19F WCI   4
HILLSDALE      FAIR      14   5  67 SW15G26   30.17F WCI  -1
HOWELL         FAIR      18   9  68 SW13G21   30.12F WCI   5

CITY           SKY/WX    TMP DP  RH WIND       PRES   REMARKS
JACKSON        FAIR      15   7  70 SW20      30.16F WCI  -2
LAMBERTVILLE   FAIR      15   9  74 SW13G21   30.23F WCI   2
LANSING        FAIR      18  10  71 SW20G26   30.13F WCI   2
LAPEER         FAIR      21  10  64 W16G24    30.07F WCI   7
MASON          FAIR      19   7  60 SW12G18   30.14S WCI   6
MONROE         FAIR      16   8  70 SW18      30.20F WCI  -1
MT. CLEMENS    CLOUDY    20  10  66 SW17G28   30.10F WCI   5
PONTIAC        MOCLDY    19   8  62 SW10      30.10F WCI   7
PORT HOPE        N/A     22  14  71 SW20G32   29.94F WCI   7
PORT HURON     FAIR      19  10  68 SW9       30.10F WCI   9
TRI CITIES     FAIR      23  16  74 SW23G30   30.03F WCI   7
MIDLAND        FAIR      25  16  68 SW18G24   30.01F WCI  11
TROY           FAIR      20  10  64 SW15G22   30.15F WCI   6
SAGINAW HB     FAIR      23  16  74 SW17G25   30.04F WCI   9
$$
MIZ043>046-050>051-056>058-064>065-071>073-077>080-180500-
SOUTHWEST LOWER MICHIGAN

CITY           SKY/WX    TMP DP  RH WIND       PRES   REMARKS
BATTLE CREEK   FAIR      16   8  71 SW21      30.17F WCI  -1
BENTON HARBOR  FAIR      21  13  71 SW22G30   30.23F WCI   5
BIG RAPIDS     FAIR      23  15  71 SW12G20   30.02F WCI  11
COLDWATER      FAIR      14   8  77 SW18      30.20F WCI  -3
FREMONT        FAIR      24  13  63 SW15G25   30.09F WCI  12
HOLLAND        FAIR      24  17  74 W25G33    30.17F WCI   8
GRAND RAPIDS   MOCLDY    23  16  74 SW22G31   30.13F WCI   8
IONIA          FAIR      21  15  79 SW18G26   30.09F WCI   6
KALAMAZOO      FAIR      16   8  71 SW17G25   30.19F WCI   0
LUDINGTON      FAIR      25  18  74 SW25G32   30.05F HAZE    WCI  10
MARSHALL       FAIR      15   8  73 SW16G22   30.17F WCI  -1
MOUNT PLEASANT FAIR      25  15  65 SW15G22   30.02F WCI  13
MUSKEGON       MOCLDY    27  17  66 SW25G33   30.13F WCI  12
SOUTH HAVEN    FAIR      24  16  74 SW20G29   30.20F WCI   9
$$
MIZ016>042-180500-
NORTHERN LOWER MICHIGAN

CITY           SKY/WX    TMP DP  RH WIND       PRES   REMARKS
ALPENA         FAIR      22  13  68 SW9       29.91S WCI  12
BEAVER ISLAND  FAIR      28  17  62 SW20G31   29.89S WCI  15
BELLAIRE       FAIR      26  19  77 S9G16     29.96F WCI  16
CADILLAC       FAIR      20  14  77 SW21G26   29.95R WCI   4
CHARLEVOIX     FAIR      29  19  65 SW22G36   29.94S WCI  16
FRANKFORT      FAIR      30  18  62 SW18G25   30.00F WCI  17
GAYLORD        FAIR      20  15  81 W26G32    29.86F HAZE    WCI   2
GRAYLING       FAIR      20  12  69 SW9G16    29.93S WCI  10
HARBOR SPRINGS FAIR      28  20  69 SW18G30   29.88S WCI  16
HOUGHTON LAKE  FAIR      20  12  71 W16G24    29.95S WCI   6
MANISTEE       FAIR      25  18  74 SW14G23   30.03F WCI  13
OSCODA         FAIR      21  12  67 W14       29.94R WCI   8
PELLSTON       FAIR      29  18  63 SW12G28   29.88S WCI  19
ROGERS CITY    FAIR      24  13  65 SW9       29.90S WCI  14
TRAVERSE CITY  FAIR      26  16  65 SW13      29.96F WCI  15
$$
MIZ007>008-015-180500-
EASTERN UPPER MICHIGAN

CITY           SKY/WX    TMP DP  RH WIND       PRES   REMARKS
KINROSS        FAIR      24  16  71 W14G21    29.83F WCI  12
MACKINAC ISLAN FAIR      28  19  71 W18G29    29.85S WCI  15
NEWBERRY       FAIR      18   9  65 SW12      29.83S WCI   6
S. S. MARIE    FAIR      24  13  62 W10       29.81F WCI  14
MUNISING         N/A     18   9  68 SW12      29.84S WCI   5
$$
MIZ004>006-011>014-085-180500-
CENTRAL UPPER MICHIGAN

CITY           SKY/WX    TMP DP  RH WIND       PRES   REMARKS
MANISTIQUE     FAIR      21  12  68 SW7       29.88S WCI  12
ESCANABA       FAIR      15   7  70 CALM      29.90R
MENOMINEE      FAIR      22  10  60 W7        29.94  WCI  13
SAWYER-GWINN   FAIR      21  10  62 W6        29.82S WCI  14
$$
MIZ001>003-009>011-084-180500-
WESTERN UPPER MICHIGAN

CITY           SKY/WX    TMP DP  RH WIND       PRES   REMARKS
IRON MOUNTAIN  FAIR      23  10  57 W9G20     29.85R WCI  13
HOUGHTON       FAIR      27  16  63 W25G32    29.78F WCI  12
COPPER HARBOR    N/A     31  19  61 NW9G16    29.79F WCI  23
IRONWOOD       FAIR      23  13  65 SW13G24   29.87F WCI  11
$$

ABBREVIATIONS USED IN REMARKS
   TC - TEMPERATURE IN CELSIUS
  WCI - WIND CHILL INDEX
   HX - HEAT INDEX
  VSB - VISIBILITY




USA.gov is the U.S. government's official web portal to all federal, state and local government web resources and services.